This is the latest recevied weather packets stored in our database for station/object HB9CEY-10. If no packets are shown the sender has not sent any weather packets the latest 10 day(s).
| Time | Temp. | Humidity | Pressure | Rain* | Wind** | Luminosity | Snow |
|---|---|---|---|---|---|---|---|
| 1777537721 | 16.11° C | 32% | 1023.7 hPa | - | - | - | - |
| 1777536821 | 16.67° C | 31% | 1023.7 hPa | - | - | - | - |
| 1777535921 | 16.67° C | 32% | 1023.5 hPa | - | - | - | - |
| 1777535021 | 17.22° C | 31% | 1023.7 hPa | - | - | - | - |
| 1777534121 | 17.78° C | 30% | 1023.6 hPa | - | - | - | - |
| 1777533221 | 17.78° C | 29% | 1023.6 hPa | - | - | - | - |
| 1777532321 | 16.67° C | 30% | 1023.7 hPa | - | - | - | - |
| 1777531421 | 15.56° C | 30% | 1023.6 hPa | - | - | - | - |
| 1777530521 | 15° C | 31% | 1023.7 hPa | - | - | - | - |
| 1777529621 | 13.33° C | 32% | 1023.7 hPa | - | - | - | - |
| 1777528721 | 11.11° C | 34% | 1023.6 hPa | - | - | - | - |
| 1777527821 | 8.89° C | 38% | 1023.6 hPa | - | - | - | - |
| 1777526921 | 8.33° C | 39% | 1023.5 hPa | - | - | - | - |
| 1777526021 | 8.33° C | 39% | 1023.4 hPa | - | - | - | - |
| 1777525121 | 8.33° C | 39% | 1023.3 hPa | - | - | - | - |
| 1777524221 | 8.33° C | 39% | 1023.3 hPa | - | - | - | - |
| 1777523321 | 8.33° C | 39% | 1023.1 hPa | - | - | - | - |
| 1777522420 | 8.33° C | 40% | 1023.1 hPa | - | - | - | - |
| 1777521520 | 8.33° C | 40% | 1023 hPa | - | - | - | - |
| 1777520620 | 8.33° C | 40% | 1022.9 hPa | - | - | - | - |
| 1777519720 | 8.89° C | 40% | 1022.9 hPa | - | - | - | - |
| 1777518820 | 8.89° C | 40% | 1022.9 hPa | - | - | - | - |
| 1777517920 | 9.44° C | 40% | 1022.7 hPa | - | - | - | - |
| 1777517020 | 9.44° C | 40% | 1022.7 hPa | - | - | - | - |
| 1777516120 | 9.44° C | 39% | 1022.6 hPa | - | - | - | - |
* Rain since midnight (hover to see other rain measurements)
** Current wind speed in m/s (hover to see current wind gust speed)